Location: Sungai Lasa
(2.4500°N, 113.4500°E)
Time: 04:44:39
(UTC+00:00)

PSLV R/B - Pass Details

Date: 03 February 2023
Orbit: 587 x 622 km, 98.0° (Epoch: 26 March)

Event Time Altitude Azimuth Distance (km) Brightness Sun altitude
Exits shadow 20:49:24 33° 45° (NE) 996 4.8 -27.2°
Maximum altitude 20:50:55 51° 102° (ESE) 741 4.2 -26.8°
Drops below altitude 10° 20:54:56 10° 178° (S) 1,909 6.3 -25.9°
Sets 20:57:08 0° 183° (S) 2,811 7.1 -25.3°
